• In Belgium
  • List of Countries
  • For 7 days
  • Water Temperature
  • Satellite Maps
  • Weather Map
  • Weather Widgets
  • user-avatar
    Login

    Hourly Weather Rudzie

    Today, 19 September, Wednesday

    Time Temperature Precipitation Wind Pressure Humidity
    00:00 +14°C° 0 mm 3 mps 741 mmHg 81%
    01:00 +14°C° 0 mm 3 mps 740 mmHg 84%
    02:00 +14°C° 0 mm 3 mps 740 mmHg 85%
    03:00 +14°C° 0 mm 3 mps 740 mmHg 86%
    04:00 +14°C° 0 mm 3 mps 740 mmHg 87%
    05:00 +14°C° 0 mm 3 mps 740 mmHg 84%
    06:00 +15°C° 0 mm 4 mps 740 mmHg 81%
    07:00 +17°C° 0 mm 3 mps 740 mmHg 78%
    08:00 +18°C° 0 mm 3 mps 740 mmHg 73%
    09:00 +20°C° 0 mm 4 mps 741 mmHg 69%
    10:00 +22°C° 0 mm 4 mps 741 mmHg 64%
    11:00 +23°C° 0 mm 4 mps 741 mmHg 60%
    12:00 +26°C° 0 mm 4 mps 741 mmHg 56%
    13:00 +28°C° 0 mm 4 mps 741 mmHg 51%
    14:00 +27°C° 0 mm 3 mps 741 mmHg 54%
    15:00 +26°C° 0 mm 3 mps 741 mmHg 57%
    16:00 +26°C° 0 mm 3 mps 741 mmHg 61%
    17:00 +23°C° 0 mm 2 mps 741 mmHg 69%
    18:00 +20°C° 0 mm 2 mps 741 mmHg 77%
    19:00 +18°C° 0 mm 2 mps 741 mmHg 85%
    20:00 +18°C° 0 mm 1 mps 741 mmHg 86%
    21:00 +16°C° 0 mm 1 mps 741 mmHg 87%
    22:00 +16°C° 0 mm 1 mps 741 mmHg 88%
    23:00 +16°C° 0 mm 1 mps 741 mmHg 88%

    Tomorrow, 20 September, Thursday

    Time Temperature Precipitation Wind Pressure Humidity
    00:00 +15°C° 0 mm 1 mps 742 mmHg 88%
    01:00 +15°C° 0 mm 1 mps 742 mmHg 88%
    02:00 +15°C° 0 mm 1 mps 742 mmHg 88%
    03:00 +15°C° 0 mm 1 mps 741 mmHg 89%
    04:00 +15°C° 0 mm 1 mps 741 mmHg 90%
    05:00 +16°C° 0 mm 2 mps 742 mmHg 87%
    06:00 +17°C° 0 mm 2 mps 742 mmHg 84%
    07:00 +18°C° 0 mm 2 mps 742 mmHg 81%
    08:00 +20°C° 0 mm 2 mps 742 mmHg 73%
    09:00 +22°C° 0 mm 3 mps 742 mmHg 64%
    10:00 +25°C° 0 mm 3 mps 742 mmHg 56%
    11:00 +26°C° 0 mm 3 mps 742 mmHg 54%
    12:00 +27°C° 0 mm 3 mps 742 mmHg 52%
    13:00 +28°C° 0 mm 4 mps 742 mmHg 49%
    14:00 +27°C° 0 mm 3 mps 742 mmHg 53%
    15:00 +27°C° 0 mm 2 mps 742 mmHg 57%
    16:00 +26°C° 0 mm 2 mps 741 mmHg 61%
    17:00 +24°C° 0 mm 2 mps 741 mmHg 65%
    18:00 +23°C° 0 mm 2 mps 741 mmHg 68%
    19:00 +20°C° 0 mm 2 mps 741 mmHg 72%
    20:00 +20°C° 0 mm 2 mps 741 mmHg 73%
    21:00 +19°C° 0 mm 2 mps 741 mmHg 74%
    22:00 +19°C° 0 mm 2 mps 741 mmHg 75%
    23:00 +19°C° 0 mm 2 mps 741 mmHg 76%

    Day after tomorrow, 21 September, Friday

    Time Temperature Precipitation Wind Pressure Humidity
    00:00 +18°C° 0 mm 2 mps 741 mmHg 78%
    01:00 +18°C° 0 mm 2 mps 741 mmHg 79%
    02:00 +18°C° 0 mm 3 mps 741 mmHg 80%
    03:00 +17°C° 0 mm 3 mps 740 mmHg 80%
    04:00 +17°C° 0 mm 3 mps 740 mmHg 81%
    05:00 +18°C° 0 mm 3 mps 740 mmHg 78%
    06:00 +18°C° 0 mm 4 mps 740 mmHg 75%
    07:00 +19°C° 0 mm 4 mps 740 mmHg 73%
    08:00 +20°C° 0 mm 5 mps 740 mmHg 66%
    09:00 +22°C° 0 mm 5 mps 740 mmHg 59%
    10:00 +24°C° 0 mm 6 mps 740 mmHg 52%
    11:00 +24°C° 0 mm 6 mps 739 mmHg 48%
    12:00 +26°C° 0 mm 6 mps 738 mmHg 45%
    13:00 +26°C° 0 mm 7 mps 738 mmHg 42%
    14:00 +26°C° 0 mm 6 mps 737 mmHg 45%
    15:00 +25°C° 0 mm 5 mps 737 mmHg 47%
    16:00 +23°C° 0 mm 5 mps 736 mmHg 50%
    17:00 +23°C° 0 mm 5 mps 735 mmHg 52%
    18:00 +22°C° 0 mm 6 mps 735 mmHg 53%
    19:00 +21°C° 0 mm 6 mps 734 mmHg 54%
    20:00 +21°C° 0 mm 6 mps 734 mmHg 55%
    21:00 +21°C° 0 mm 6 mps 734 mmHg 55%
    22:00 +21°C° 0 mm 7 mps 734 mmHg 56%
    23:00 +17°C° 0.1 mm 6 mps 735 mmHg 64%

    22 September, Saturday

    Time Temperature Precipitation Wind Pressure Humidity
    00:00 +15°C° 0.1 mm 6 mps 735 mmHg 72%
    01:00 +13°C° 0.1 mm 5 mps 735 mmHg 79%
    02:00 +12°C° 0.3 mm 5 mps 736 mmHg 82%
    03:00 +11°C° 0.3 mm 4 mps 736 mmHg 85%
    04:00 +11°C° 0.3 mm 4 mps 737 mmHg 88%
    05:00 +11°C° 0 mm 4 mps 737 mmHg 84%
    06:00 +10°C° 0 mm 5 mps 737 mmHg 80%
    07:00 +10°C° 0 mm 5 mps 738 mmHg 76%
    08:00 +11°C° 0 mm 6 mps 738 mmHg 69%
    09:00 +12°C° 0 mm 7 mps 738 mmHg 61%
    10:00 +14°C° 0 mm 7 mps 738 mmHg 53%
    11:00 +14°C° 0.1 mm 7 mps 738 mmHg 53%
    12:00 +15°C° 0.1 mm 7 mps 738 mmHg 52%
    13:00 +15°C° 0.1 mm 6 mps 738 mmHg 52%
    14:00 +15°C° 0.3 mm 6 mps 738 mmHg 55%
    15:00 +14°C° 0.3 mm 5 mps 738 mmHg 59%
    16:00 +14°C° 0.3 mm 4 mps 738 mmHg 62%
    17:00 +12°C° 0.1 mm 4 mps 738 mmHg 68%
    18:00 +11°C° 0.1 mm 3 mps 738 mmHg 74%
    19:00 +9°C° 0.1 mm 3 mps 738 mmHg 80%
    20:00 +9°C° 0 mm 3 mps 738 mmHg 79%
    21:00 +8°C° 0 mm 4 mps 738 mmHg 79%
    22:00 +8°C° 0 mm 4 mps 738 mmHg 78%
    23:00 +8°C° 0 mm 4 mps 738 mmHg 79%

    23 September, Sunday

    Time Temperature Precipitation Wind Pressure Humidity
    00:00 +8°C° 0 mm 5 mps 738 mmHg 80%
    01:00 +8°C° 0 mm 5 mps 737 mmHg 80%
    02:00 +7°C° 0 mm 5 mps 737 mmHg 80%
    03:00 +7°C° 0 mm 5 mps 737 mmHg 80%
    04:00 +7°C° 0 mm 5 mps 737 mmHg 80%
    05:00 +7°C° 0 mm 6 mps 737 mmHg 78%
    06:00 +7°C° 0 mm 6 mps 737 mmHg 77%
    07:00 +8°C° 0 mm 6 mps 737 mmHg 75%
    08:00 +9°C° 0 mm 7 mps 738 mmHg 70%
    09:00 +10°C° 0 mm 7 mps 738 mmHg 66%
    10:00 +11°C° 0 mm 7 mps 738 mmHg 61%
    11:00 +12°C° 0 mm 7 mps 738 mmHg 59%
    12:00 +12°C° 0 mm 7 mps 738 mmHg 56%
    13:00 +14°C° 0 mm 6 mps 738 mmHg 53%
    14:00 +14°C° 0.1 mm 5 mps 737 mmHg 55%
    15:00 +13°C° 0.1 mm 4 mps 737 mmHg 57%
    16:00 +13°C° 0.1 mm 3 mps 737 mmHg 58%
    17:00 +12°C° 0 mm 3 mps 737 mmHg 61%
    18:00 +10°C° 0 mm 2 mps 736 mmHg 64%
    19:00 +9°C° 0 mm 2 mps 736 mmHg 67%
    20:00 +9°C° 0 mm 2 mps 735 mmHg 65%
    21:00 +9°C° 0 mm 3 mps 735 mmHg 62%
    22:00 +10°C° 0 mm 3 mps 734 mmHg 60%
    23:00 +8°C° 0.4 mm 4 mps 733 mmHg 66%

    24 September, Monday

    Time Temperature Precipitation Wind Pressure Humidity
    00:00 +8°C° 0.4 mm 4 mps 732 mmHg 73%
    01:00 +8°C° 0.4 mm 5 mps 730 mmHg 79%
    02:00 +8°C° 1.1 mm 6 mps 729 mmHg 83%
    03:00 +8°C° 1.1 mm 7 mps 727 mmHg 87%
    04:00 +8°C° 1.1 mm 7 mps 725 mmHg 91%
    05:00 +8°C° 3 mm 7 mps 724 mmHg 91%
    06:00 +8°C° 3 mm 7 mps 723 mmHg 92%
    07:00 +9°C° 3 mm 8 mps 721 mmHg 92%
    08:00 +10°C° 1.5 mm 7 mps 720 mmHg 91%
    09:00 +10°C° 1.5 mm 6 mps 719 mmHg 89%
    10:00 +11°C° 1.5 mm 6 mps 718 mmHg 88%
    11:00 +12°C° 0.6 mm 5 mps 718 mmHg 87%
    12:00 +12°C° 0.6 mm 5 mps 717 mmHg 86%
    13:00 +12°C° 0.6 mm 5 mps 717 mmHg 85%
    14:00 +12°C° 0.6 mm 4 mps 717 mmHg 87%
    15:00 +11°C° 0.6 mm 3 mps 716 mmHg 89%
    16:00 +11°C° 0.6 mm 3 mps 716 mmHg 91%
    17:00 +9°C° 1 mm 5 mps 717 mmHg 91%
    18:00 +9°C° 1 mm 7 mps 718 mmHg 92%
    19:00 +7°C° 1 mm 8 mps 719 mmHg 92%
    20:00 +6°C° 1.1 mm 9 mps 720 mmHg 90%
    21:00 +6°C° 1.1 mm 10 mps 722 mmHg 87%
    22:00 +4°C° 1.1 mm 11 mps 724 mmHg 85%
    23:00 +4°C° 0.2 mm 11 mps 725 mmHg 84%
    Show more